| time (UTC) | temp F | wind direction | speed knots | gust knots | rain 1hr in | rain 24hr in | rain mn in | humidity % | barometer mb |
| 20260506001522 | 44 | 290 | 2.6 | 5.2 | 0.03 | 0.04 | 0.04 | 86 | 996.8 |
| 20260506000022 | 44 | 286 | 0.9 | 4.3 | 0.02 | 0.03 | 0.03 | 85 | 996.3 |
| 20260505234523 | 44 | 124 | 0.9 | 2.6 | 0.02 | 0.02 | 0.02 | 83 | 995.5 |
| 20260505233021 | 45 | 124 | 0.9 | 4.3 | 0.02 | 0.02 | 0.02 | 80 | 995.6 |
| 20260505231520 | 45 | 217 | 0.9 | 6.1 | 0.00 | 0.01 | 0.01 | 79 | 995.8 |
| 20260505230035 | 45 | 139 | 0.0 | 6.1 | 0.00 | 0.01 | 0.01 | 78 | 995.7 |
| 20260505224518 | 44 | 123 | 1.7 | 7.0 | 0.00 | 0.01 | 0.01 | 80 | 995.8 |
| 20260505223017 | 44 | 101 | 1.7 | 4.3 | 0.01 | 0.01 | 0.01 | 82 | 996.0 |
| 20260505221517 | 44 | 103 | 1.7 | 6.1 | 0.01 | 0.01 | 0.01 | 80 | 996.1 |
| 20260505220016 | 45 | 134 | 3.5 | 7.8 | 0.01 | 0.01 | 0.01 | 79 | 996.1 |
| 20260505214515 | 46 | 132 | 4.3 | 7.0 | 0.01 | 0.01 | 0.01 | 75 | 996.2 |
| 20260505213015 | 48 | 146 | 4.3 | 7.8 | 0.00 | 0.00 | 0.00 | 70 | 996.4 |
| 20260505211515 | 50 | 165 | 5.2 | 10.4 | 0.00 | 0.00 | 0.00 | 59 | 996.2 |
| 20260505210014 | 52 | 122 | 4.3 | 7.8 | 0.00 | 0.00 | 0.00 | 51 | 995.8 |
| 20260505204514 | 53 | 150 | 1.7 | 8.7 | 0.00 | 0.00 | 0.00 | 49 | 995.7 |
| 20260505203012 | 54 | 144 | 2.6 | 16.5 | 0.00 | 0.00 | 0.00 | 49 | 995.6 |
| 20260505201510 | 52 | 138 | 7.0 | 14.8 | 0.00 | 0.00 | 0.00 | 50 | 995.6 |
| 20260505200020 | 51 | 78 | 4.3 | 13.0 | 0.00 | 0.00 | 0.00 | 52 | 995.9 |
| 20260505194506 | 49 | 138 | 3.5 | 8.7 | 0.00 | 0.00 | 0.00 | 58 | 996.1 |
| 20260505193006 | 48 | 56 | 3.5 | 11.3 | 0.00 | 0.00 | 0.00 | 58 | 996.6 |
| 20260505191505 | 48 | 124 | 6.1 | 11.3 | 0.00 | 0.00 | 0.00 | 58 | 996.4 |
| 20260505190003 | 47 | 115 | 6.1 | 13.0 | 0.00 | 0.00 | 0.00 | 58 | 996.5 |
| 20260505184502 | 49 | 149 | 4.3 | 11.3 | 0.00 | 0.00 | 0.00 | 63 | 996.6 |
| 20260505183001 | 51 | 145 | 6.1 | 12.2 | 0.00 | 0.00 | 0.00 | 62 | 996.8 |
| 20260505181601 | 51 | 167 | 5.2 | 9.6 | 0.00 | 0.00 | 0.00 | 59 | 996.9 |
| 20260505174559 | 50 | 110 | 4.3 | 7.8 | 0.00 | 0.00 | 0.00 | 57 | 997.3 |
| 20260505173054 | 49 | 145 | 4.3 | 7.0 | 0.00 | 0.00 | 0.00 | 54 | 997.5 |
| 20260505171554 | 47 | 155 | 2.6 | 7.0 | 0.00 | 0.00 | 0.00 | 58 | 998.0 |
| 20260505170053 | 47 | 103 | 6.1 | 9.6 | 0.00 | 0.00 | 0.00 | 60 | 997.4 |
| 20260505164600 | 48 | 140 | 4.3 | 8.7 | 0.00 | 0.00 | 0.00 | 59 | 998.0 |
| 20260505163056 | 49 | 155 | 3.5 | 8.7 | 0.00 | 0.00 | 0.00 | 58 | 997.9 |
| 20260505161550 | 51 | 142 | 2.6 | 7.0 | 0.00 | 0.00 | 0.00 | 52 | 998.0 |
| 20260505153105 | 51 | 171 | 5.2 | 9.6 | 0.00 | 0.00 | 0.00 | 54 | 998.2 |
| 20260505151555 | 52 | 160 | 4.3 | 7.8 | 0.00 | 0.00 | 0.00 | 51 | 998.2 |
| 20260505124528 | 43 | 207 | 4.3 | 8.7 | 0.00 | 0.00 | 0.00 | 73 | 1000.3 |
| 20260505123025 | 43 | 216 | 5.2 | 9.6 | 0.00 | 0.00 | 0.00 | 72 | 1000.4 |
| 20260505121525 | 44 | 200 | 3.5 | 9.6 | 0.00 | 0.00 | 0.00 | 71 | 1000.2 |
| 20260505120023 | 45 | 217 | 3.5 | 7.0 | 0.00 | 0.00 | 0.00 | 67 | 1000.2 |
| 20260505114532 | 45 | 250 | 1.7 | 4.3 | 0.00 | 0.00 | 0.00 | 66 | 1000.3 |
| 20260505113017 | 44 | 296 | 0.9 | 2.6 | 0.00 | 0.00 | 0.00 | 72 | 1000.4 |
| 20260505111514 | 42 | 296 | 0.9 | 2.6 | 0.00 | 0.00 | 0.00 | 74 | 1000.5 |
| 20260505101510 | 40 | 67 | 0.0 | 2.6 | 0.00 | 0.00 | 0.00 | 78 | 1000.2 |
| 20260505100012 | 40 | 327 | 0.9 | 5.2 | 0.00 | 0.00 | 0.00 | 78 | 1000.0 |
| 20260505094509 | 38 | 19 | 3.5 | 7.8 | 0.00 | 0.00 | 0.00 | 82 | 1000.2 |
| 20260505093008 | 38 | 293 | 1.7 | 4.3 | 0.00 | 0.00 | 0.00 | 81 | 1000.0 |
| 20260505091507 | 38 | 302 | 0.9 | 4.3 | 0.00 | 0.00 | 0.00 | 79 | 999.9 |
| 20260505090007 | 38 | 323 | 0.9 | 4.3 | 0.00 | 0.00 | 0.00 | 81 | 999.5 |
| 20260505084506 | 38 | 336 | 1.7 | 3.5 | 0.00 | 0.00 | 0.00 | 82 | 999.4 |
| 20260505083005 | 39 | 304 | 2.6 | 7.0 | 0.00 | 0.00 | 0.00 | 82 | 999.6 |
| 20260505081502 | 39 | 300 | 6.1 | 11.3 | 0.00 | 0.00 | 0.00 | 79 | 1000.0 |
| 20260505080059 | 40 | 259 | 6.1 | 13.0 | 0.00 | 0.00 | 0.00 | 79 | 999.6 |
| 20260505074610 | 40 | 247 | 4.3 | 12.2 | 0.00 | 0.00 | 0.00 | 78 | 999.4 |
| 20260505073055 | 40 | 281 | 7.0 | 13.0 | 0.00 | 0.00 | 0.00 | 76 | 999.2 |
| 20260505071551 | 40 | 309 | 8.7 | 14.8 | 0.00 | 0.00 | 0.00 | 77 | 999.1 |
| 20260505070048 | 40 | 298 | 8.7 | 15.6 | 0.00 | 0.00 | 0.00 | 77 | 998.8 |
| 20260505064546 | 40 | 271 | 6.1 | 13.0 | 0.00 | 0.00 | 0.00 | 77 | 998.9 |
| 20260505063045 | 40 | 282 | 6.1 | 11.3 | 0.00 | 0.00 | 0.00 | 77 | 998.8 |
| 20260505061609 | 41 | 265 | 6.1 | 11.3 | 0.00 | 0.00 | 0.00 | 76 | 998.8 |
| 20260505060046 | 40 | 275 | 7.0 | 12.2 | 0.00 | 0.00 | 0.00 | 77 | 998.6 |
| 20260505054554 | 40 | 250 | 6.1 | 13.0 | 0.00 | 0.00 | 0.00 | 77 | 998.4 |
| 20260505053037 | 41 | 286 | 5.2 | 10.4 | 0.00 | 0.00 | 0.00 | 76 | 998.3 |
| 20260505051536 | 41 | 275 | 6.1 | 12.2 | 0.00 | 0.00 | 0.00 | 76 | 998.3 |
| 20260505041526 | 42 | 287 | 5.2 | 11.3 | 0.00 | 0.02 | 0.00 | 78 | 998.0 |
| 20260505040023 | 42 | 282 | 2.6 | 6.1 | 0.00 | 0.02 | 0.00 | 76 | 997.9 |
| 20260505034522 | 42 | 292 | 3.5 | 7.8 | 0.00 | 0.04 | 0.02 | 77 | 997.7 |
| 20260505033032 | 42 | 281 | 3.5 | 7.8 | 0.00 | 0.04 | 0.02 | 79 | 997.7 |
| 20260505031521 | 42 | 277 | 3.5 | 7.8 | 0.00 | 0.04 | 0.02 | 80 | 997.8 |
| 20260505030021 | 42 | 272 | 2.6 | 7.8 | 0.00 | 0.04 | 0.02 | 78 | 997.7 |
| 20260505024545 | 43 | 293 | 2.6 | 7.8 | 0.00 | 0.07 | 0.02 | 77 | 997.7 |
| 20260505023020 | 43 | 284 | 3.5 | 9.6 | 0.00 | 0.07 | 0.02 | 77 | 997.6 |
| 20260505021538 | 43 | 307 | 3.5 | 11.3 | 0.00 | 0.07 | 0.02 | 77 | 997.5 |
| 20260505020019 | 43 | 288 | 2.6 | 8.7 | 0.00 | 0.07 | 0.02 | 79 | 997.3 |
| 20260505014523 | 43 | 283 | 3.5 | 8.7 | 0.00 | 0.09 | 0.02 | 78 | 997.3 |
| 20260505013018 | 44 | 286 | 3.5 | 8.7 | 0.00 | 0.09 | 0.02 | 75 | 997.2 |
| 20260505011519 | 46 | 323 | 5.2 | 10.4 | 0.00 | 0.09 | 0.02 | 72 | 997.1 |
| 20260505010018 | 46 | 297 | 3.5 | 7.8 | 0.00 | 0.09 | 0.02 | 73 | 997.1 |
| 20260505004527 | 47 | 298 | 2.6 | 7.8 | 0.00 | 0.11 | 0.02 | 70 | 997.1 |
| 20260505003016 | 48 | 288 | 3.5 | 8.7 | 0.00 | 0.11 | 0.02 | 66 | 996.9 |